Time,TemperatureF,DewpointF,PressureIn,WindDirection,WindDirectionDegrees,WindSpeedMPH,WindSpeedGustMPH,Humidity,HourlyPrecipIn,Conditions,Clouds,dailyrainin,SolarRadiationWatts/m^2,SoftwareType,DateUTC
2013-09-10 00:01:00,84.4,69.0,29.67,ESE,113,0.0,1.0,60,0.00,,CLR,0.00,0.00,VWS V14.01,2013-09-10 05:01:00,
2013-09-10 00:06:00,84.5,69.1,29.67,ESE,113,0.0,1.0,60,0.00,,CLR,0.00,0.00,VWS V14.01,2013-09-10 05:06:00,
2013-09-10 00:11:00,84.5,68.6,29.67,ESE,113,0.0,1.0,59,0.00,,CLR,0.00,0.00,VWS V14.01,2013-09-10 05:11:00,
2013-09-10 00:16:00,84.5,69.1,29.67,ESE,118,0.0,2.0,60,0.00,,CLR,0.00,0.00,VWS V14.01,2013-09-10 05:16:00,
2013-09-10 00:21:00,84.4,68.5,29.67,ESE,118,0.0,1.0,59,0.00,,CLR,0.00,0.00,VWS V14.01,2013-09-10 05:21:00,
2013-09-10 00:26:00,84.3,68.4,29.67,ESE,118,0.0,1.0,59,0.00,,CLR,0.00,0.00,VWS V14.01,2013-09-10 05:26:00,
2013-09-10 00:31:00,84.1,68.2,29.67,ESE,118,0.0,1.0,59,0.00,,CLR,0.00,0.00,VWS V14.01,2013-09-10 05:31:00,
2013-09-10 00:36:00,84.1,68.2,29.68,ESE,117,0.0,1.0,59,0.00,,CLR,0.00,0.00,VWS V14.01,2013-09-10 05:36:00,
2013-09-10 00:41:00,84.1,68.2,29.68,ESE,117,0.0,1.0,59,0.00,,CLR,0.00,0.00,VWS V14.01,2013-09-10 05:41:00,
2013-09-10 00:46:00,84.1,68.2,29.68,ESE,117,0.0,1.0,59,0.00,,CLR,0.00,0.00,VWS V14.01,2013-09-10 05:46:00,
2013-09-10 00:51:00,84.1,68.2,29.68,ESE,105,0.0,1.0,59,0.00,,CLR,0.00,0.00,VWS V14.01,2013-09-10 05:51:00,
2013-09-10 00:56:00,84.0,68.1,29.68,ENE,76,0.0,3.0,59,0.00,,CLR,0.00,0.00,VWS V14.01,2013-09-10 05:56:00,
2013-09-10 01:01:00,83.9,68.1,29.69,ENE,76,0.0,1.0,59,0.00,,CLR,0.00,0.00,VWS V14.01,2013-09-10 06:01:00,
2013-09-10 01:06:00,83.8,68.0,29.68,NNW,343,5.0,5.0,59,0.00,,CLR,0.00,0.00,VWS V14.01,2013-09-10 06:06:00,
2013-09-10 01:11:00,83.6,67.8,29.69,South,170,0.0,1.0,59,0.00,,CLR,0.00,0.00,VWS V14.01,2013-09-10 06:11:00,
2013-09-10 01:16:00,83.5,67.7,29.69,South,170,0.0,1.0,59,0.00,,CLR,0.00,0.00,VWS V14.01,2013-09-10 06:16:00,
2013-09-10 01:21:00,83.4,67.6,29.69,South,170,0.0,1.0,59,0.00,,CLR,0.00,0.00,VWS V14.01,2013-09-10 06:21:00,
2013-09-10 01:26:00,83.3,67.5,29.69,South,170,0.0,1.0,59,0.00,,CLR,0.00,0.00,VWS V14.01,2013-09-10 06:26:00,
2013-09-10 01:31:00,83.2,67.4,29.69,South,170,0.0,1.0,59,0.00,,CLR,0.00,0.00,VWS V14.01,2013-09-10 06:31:00,
2013-09-10 01:36:00,83.1,67.8,29.69,South,190,0.0,2.0,60,0.00,,CLR,0.00,0.00,VWS V14.01,2013-09-10 06:36:00,
2013-09-10 01:41:00,83.0,67.7,29.69,South,190,1.0,1.0,60,0.00,,CLR,0.00,0.00,VWS V14.01,2013-09-10 06:41:00,
2013-09-10 01:46:00,82.9,67.6,29.70,South,190,0.0,1.0,60,0.00,,CLR,0.00,0.00,VWS V14.01,2013-09-10 06:46:00,
2013-09-10 01:51:00,82.8,67.5,29.70,South,190,0.0,1.0,60,0.00,,CLR,0.00,0.00,VWS V14.01,2013-09-10 06:51:00,
2013-09-10 01:56:00,82.7,67.4,29.70,South,190,0.0,1.0,60,0.00,,CLR,0.00,0.00,VWS V14.01,2013-09-10 06:56:00,
2013-09-10 02:01:00,82.6,67.8,29.70,South,190,0.0,0.0,61,0.00,,CLR,0.00,0.00,VWS V14.01,2013-09-10 07:01:00,
2013-09-10 02:06:00,82.5,67.7,29.70,South,190,0.0,1.0,61,0.00,,CLR,0.00,0.00,VWS V14.01,2013-09-10 07:06:00,
2013-09-10 02:11:00,82.3,67.5,29.70,South,190,0.0,0.0,61,0.00,,CLR,0.00,0.00,VWS V14.01,2013-09-10 07:11:00,
2013-09-10 02:16:00,82.2,67.4,29.70,South,190,0.0,1.0,61,0.00,,CLR,0.00,0.00,VWS V14.01,2013-09-10 07:16:00,
2013-09-10 02:21:00,82.1,67.3,29.70,South,190,0.0,0.0,61,0.00,,CLR,0.00,0.00,VWS V14.01,2013-09-10 07:21:00,
2013-09-10 02:26:00,82.0,67.2,29.70,South,190,0.0,1.0,61,0.00,,CLR,0.00,0.00,VWS V14.01,2013-09-10 07:26:00,
2013-09-10 02:31:00,82.0,67.2,29.70,South,190,0.0,1.0,61,0.00,,CLR,0.00,0.00,VWS V14.01,2013-09-10 07:31:00,
2013-09-10 02:36:00,82.0,67.2,29.70,SSW,196,0.0,1.0,61,0.00,,CLR,0.00,0.00,VWS V14.01,2013-09-10 07:36:00,
2013-09-10 02:41:00,81.9,67.1,29.70,SSW,196,0.0,1.0,61,0.00,,CLR,0.00,0.00,VWS V14.01,2013-09-10 07:41:00,
2013-09-10 02:46:00,81.9,67.1,29.70,SSW,196,0.0,2.0,61,0.00,,CLR,0.00,0.00,VWS V14.01,2013-09-10 07:46:00,
2013-09-10 02:51:00,81.9,67.1,29.71,East,90,0.0,1.0,61,0.00,,CLR,0.00,0.00,VWS V14.01,2013-09-10 07:51:00,
2013-09-10 02:56:00,81.8,67.1,29.71,East,90,0.0,1.0,61,0.00,,CLR,0.00,0.00,VWS V14.01,2013-09-10 07:56:00,
2013-09-10 03:01:00,81.8,67.1,29.71,East,90,0.0,1.0,61,0.00,,CLR,0.00,0.00,VWS V14.01,2013-09-10 08:01:00,
2013-09-10 03:06:00,81.8,67.1,29.71,East,90,0.0,1.0,61,0.00,,CLR,0.00,0.00,VWS V14.01,2013-09-10 08:06:00,
2013-09-10 03:11:00,81.7,66.9,29.71,East,90,0.0,1.0,61,0.00,,CLR,0.00,0.00,VWS V14.01,2013-09-10 08:11:00,
2013-09-10 03:16:00,81.7,66.9,29.72,SSW,209,0.0,7.0,61,0.00,,CLR,0.00,0.00,VWS V14.01,2013-09-10 08:16:00,
2013-09-10 03:21:00,81.8,67.1,29.71,NW,321,0.0,0.0,61,0.00,,CLR,0.00,0.00,VWS V14.01,2013-09-10 08:21:00,
2013-09-10 03:26:00,81.8,67.1,29.71,NW,318,0.0,1.0,61,0.00,,CLR,0.00,0.00,VWS V14.01,2013-09-10 08:26:00,
2013-09-10 03:31:00,81.7,66.9,29.71,NW,321,0.0,3.0,61,0.00,,CLR,0.00,0.00,VWS V14.01,2013-09-10 08:31:00,
2013-09-10 03:36:00,81.6,66.9,29.71,NW,317,1.0,3.0,61,0.00,,CLR,0.00,0.00,VWS V14.01,2013-09-10 08:36:00,
2013-09-10 03:41:00,81.5,66.8,29.72,NW,317,0.0,1.0,61,0.00,,CLR,0.00,0.00,VWS V14.01,2013-09-10 08:41:00,
2013-09-10 03:46:00,81.4,66.7,29.72,NW,317,0.0,1.0,61,0.00,,CLR,0.00,0.00,VWS V14.01,2013-09-10 08:46:00,
2013-09-10 03:51:00,81.2,66.5,29.72,NW,317,0.0,1.0,61,0.00,,CLR,0.00,0.00,VWS V14.01,2013-09-10 08:51:00,
2013-09-10 03:56:00,81.1,66.9,29.72,NW,319,0.0,3.0,62,0.00,,CLR,0.00,0.00,VWS V14.01,2013-09-10 08:56:00,
2013-09-10 04:01:00,80.9,66.7,29.72,NW,319,0.0,1.0,62,0.00,,CLR,0.00,0.00,VWS V14.01,2013-09-10 09:01:00,
2013-09-10 04:06:00,80.8,66.6,29.72,NW,319,0.0,1.0,62,0.00,,CLR,0.00,0.00,VWS V14.01,2013-09-10 09:06:00,
2013-09-10 04:11:00,80.6,66.4,29.72,NW,319,0.0,0.0,62,0.00,,CLR,0.00,0.00,VWS V14.01,2013-09-10 09:11:00,
2013-09-10 04:16:00,80.5,66.8,29.72,NW,319,0.0,0.0,63,0.00,,CLR,0.00,0.00,VWS V14.01,2013-09-10 09:16:00,
2013-09-10 04:21:00,80.3,66.6,29.72,NW,319,0.0,0.0,63,0.00,,CLR,0.00,0.00,VWS V14.01,2013-09-10 09:21:00,
2013-09-10 04:26:00,80.1,66.4,29.72,NW,319,0.0,1.0,63,0.00,,CLR,0.00,0.00,VWS V14.01,2013-09-10 09:26:00,
2013-09-10 04:31:00,79.9,66.7,29.72,NW,319,0.0,0.0,64,0.00,,CLR,0.00,0.00,VWS V14.01,2013-09-10 09:31:00,
2013-09-10 04:36:00,79.8,66.6,29.72,NW,319,0.0,0.0,64,0.00,,CLR,0.00,0.00,VWS V14.01,2013-09-10 09:36:00,
2013-09-10 04:41:00,79.6,66.4,29.72,NW,319,0.0,0.0,64,0.00,,CLR,0.00,0.00,VWS V14.01,2013-09-10 09:41:00,
2013-09-10 04:46:00,79.5,66.3,29.72,NW,319,0.0,1.0,64,0.00,,CLR,0.00,0.00,VWS V14.01,2013-09-10 09:46:00,
2013-09-10 04:51:00,79.4,66.2,29.72,NW,316,0.0,0.0,64,0.00,,CLR,0.00,0.00,VWS V14.01,2013-09-10 09:51:00,
2013-09-10 04:56:00,79.4,66.2,29.72,North,11,0.0,1.0,64,0.00,,CLR,0.00,0.00,VWS V14.01,2013-09-10 09:56:00,
2013-09-10 05:01:00,79.3,66.5,29.72,SW,223,0.0,1.0,65,0.00,,CLR,0.00,0.00,VWS V14.01,2013-09-10 10:01:00,
2013-09-10 05:06:00,79.3,66.5,29.72,SW,221,0.0,1.0,65,0.00,,CLR,0.00,0.00,VWS V14.01,2013-09-10 10:06:00,
2013-09-10 05:11:00,79.2,66.4,29.72,West,274,0.0,1.0,65,0.00,,CLR,0.00,0.00,VWS V14.01,2013-09-10 10:11:00,
2013-09-10 05:16:00,79.2,66.4,29.72,West,274,0.0,1.0,65,0.00,,CLR,0.00,0.00,VWS V14.01,2013-09-10 10:16:00,
2013-09-10 05:21:00,79.2,66.4,29.72,West,274,0.0,0.0,65,0.00,,CLR,0.00,0.00,VWS V14.01,2013-09-10 10:21:00,
2013-09-10 05:26:00,79.1,66.3,29.72,West,274,0.0,1.0,65,0.00,,CLR,0.00,0.00,VWS V14.01,2013-09-10 10:26:00,
2013-09-10 05:31:00,79.0,66.2,29.73,West,274,0.0,0.0,65,0.00,,CLR,0.00,0.00,VWS V14.01,2013-09-10 10:31:00,
2013-09-10 05:36:00,78.9,66.2,29.72,West,274,1.0,1.0,65,0.00,,CLR,0.00,0.00,VWS V14.01,2013-09-10 10:36:00,
2013-09-10 05:41:00,78.8,66.1,29.73,West,274,0.0,0.0,65,0.00,,CLR,0.00,0.00,VWS V14.01,2013-09-10 10:41:00,
2013-09-10 05:46:00,78.7,66.4,29.74,West,274,0.0,1.0,66,0.00,,CLR,0.00,0.00,VWS V14.01,2013-09-10 10:46:00,
2013-09-10 05:51:00,78.6,66.3,29.74,West,274,0.0,0.0,66,0.00,,CLR,0.00,0.00,VWS V14.01,2013-09-10 10:51:00,
2013-09-10 05:56:00,78.4,66.1,29.74,West,274,0.0,0.0,66,0.00,,CLR,0.00,0.00,VWS V14.01,2013-09-10 10:56:00,
2013-09-10 06:01:00,78.3,66.0,29.74,West,274,0.0,1.0,66,0.00,,CLR,0.00,0.00,VWS V14.01,2013-09-10 11:01:00,
2013-09-10 06:06:00,78.2,66.4,29.75,West,274,0.0,1.0,67,0.00,,CLR,0.00,0.00,VWS V14.01,2013-09-10 11:06:00,
2013-09-10 06:11:00,78.0,66.2,29.75,West,274,0.0,0.0,67,0.00,,CLR,0.00,0.00,VWS V14.01,2013-09-10 11:11:00,
2013-09-10 06:16:00,77.8,66.0,29.74,West,274,0.0,0.0,67,0.00,,CLR,0.00,0.00,VWS V14.01,2013-09-10 11:16:00,
2013-09-10 06:21:00,77.7,66.3,29.75,West,274,0.0,0.0,68,0.00,,CLR,0.00,0.00,VWS V14.01,2013-09-10 11:21:00,
2013-09-10 06:26:00,77.6,66.2,29.75,West,274,0.0,0.0,68,0.00,,CLR,0.00,0.00,VWS V14.01,2013-09-10 11:26:00,
2013-09-10 06:31:00,77.4,66.0,29.75,West,274,1.0,1.0,68,0.00,,CLR,0.00,0.00,VWS V14.01,2013-09-10 11:31:00,
2013-09-10 06:36:00,77.3,65.9,29.75,West,274,0.0,1.0,68,0.00,,CLR,0.00,0.00,VWS V14.01,2013-09-10 11:36:00,
2013-09-10 06:41:00,77.2,65.8,29.75,West,274,0.0,0.0,68,0.00,,CLR,0.00,0.00,VWS V14.01,2013-09-10 11:41:00,
2013-09-10 06:46:00,77.1,66.2,29.75,West,274,0.0,0.0,69,0.00,,CLR,0.00,5.00,VWS V14.01,2013-09-10 11:46:00,
2013-09-10 06:51:00,77.0,66.1,29.75,West,274,0.0,0.0,69,0.00,,CLR,0.00,9.00,VWS V14.01,2013-09-10 11:51:00,
2013-09-10 06:56:00,76.8,65.9,29.75,West,274,0.0,1.0,69,0.00,,CLR,0.00,11.00,VWS V14.01,2013-09-10 11:56:00,
2013-09-10 07:01:00,76.7,65.8,29.75,West,274,0.0,1.0,69,0.00,,CLR,0.00,12.00,VWS V14.01,2013-09-10 12:01:00,
2013-09-10 07:06:00,76.7,66.2,29.76,West,274,0.0,1.0,70,0.00,,CLR,0.00,16.00,VWS V14.01,2013-09-10 12:06:00,
2013-09-10 07:11:00,76.6,66.1,29.76,West,274,0.0,0.0,70,0.00,,CLR,0.00,18.00,VWS V14.01,2013-09-10 12:11:00,
2013-09-10 07:16:00,76.6,66.1,29.76,West,274,0.0,0.0,70,0.00,,CLR,0.00,21.00,VWS V14.01,2013-09-10 12:16:00,
2013-09-10 07:21:00,76.6,66.1,29.77,West,277,0.0,0.0,70,0.00,,CLR,0.00,23.00,VWS V14.01,2013-09-10 12:21:00,
2013-09-10 07:26:00,76.6,66.5,29.77,West,277,0.0,1.0,71,0.00,,CLR,0.00,25.00,VWS V14.01,2013-09-10 12:26:00,
2013-09-10 07:31:00,76.6,66.5,29.77,West,277,0.0,0.0,71,0.00,,CLR,0.00,26.00,VWS V14.01,2013-09-10 12:31:00,
2013-09-10 07:36:00,76.6,66.5,29.77,West,277,1.0,1.0,71,0.00,,CLR,0.00,28.00,VWS V14.01,2013-09-10 12:36:00,
2013-09-10 07:41:00,76.7,66.6,29.78,West,277,0.0,0.0,71,0.00,,CLR,0.00,30.00,VWS V14.01,2013-09-10 12:41:00,
2013-09-10 07:46:00,76.7,66.6,29.78,West,277,0.0,0.0,71,0.00,,CLR,0.00,33.00,VWS V14.01,2013-09-10 12:46:00,
2013-09-10 07:51:00,76.7,66.6,29.78,West,277,0.0,0.0,71,0.00,,CLR,0.00,37.00,VWS V14.01,2013-09-10 12:51:00,
2013-09-10 07:56:00,76.7,66.6,29.78,West,277,0.0,0.0,71,0.00,,CLR,0.00,42.00,VWS V14.01,2013-09-10 12:56:00,
2013-09-10 08:01:00,76.8,67.1,29.78,West,277,0.0,0.0,72,0.00,,CLR,0.00,47.00,VWS V14.01,2013-09-10 13:01:00,
2013-09-10 08:06:00,76.9,67.2,29.78,West,277,0.0,0.0,72,0.00,,CLR,0.00,54.00,VWS V14.01,2013-09-10 13:06:00,
2013-09-10 08:11:00,77.0,67.3,29.79,West,277,0.0,1.0,72,0.00,,CLR,0.00,167.00,VWS V14.01,2013-09-10 13:11:00,
2013-09-10 08:16:00,77.1,67.4,29.79,West,277,0.0,1.0,72,0.00,,CLR,0.00,225.00,VWS V14.01,2013-09-10 13:16:00,
2013-09-10 08:21:00,77.4,67.7,29.79,West,277,0.0,1.0,72,0.00,,CLR,0.00,241.00,VWS V14.01,2013-09-10 13:21:00,
2013-09-10 08:26:00,77.8,68.1,29.79,West,277,0.0,1.0,72,0.00,,CLR,0.00,155.00,VWS V14.01,2013-09-10 13:26:00,
2013-09-10 08:31:00,78.2,68.4,29.79,West,277,0.0,1.0,72,0.00,,CLR,0.00,88.00,VWS V14.01,2013-09-10 13:31:00,
2013-09-10 08:36:00,78.5,68.7,29.79,West,277,0.0,1.0,72,0.00,,CLR,0.00,91.00,VWS V14.01,2013-09-10 13:36:00,
2013-09-10 08:41:00,78.7,68.5,29.79,West,277,0.0,0.0,71,0.00,,CLR,0.00,163.00,VWS V14.01,2013-09-10 13:41:00,
2013-09-10 08:46:00,78.9,68.7,29.79,West,277,0.0,1.0,71,0.00,,CLR,0.00,107.00,VWS V14.01,2013-09-10 13:46:00,
2013-09-10 08:51:00,79.1,69.3,29.79,WNW,287,1.0,1.0,72,0.00,,CLR,0.00,86.00,VWS V14.01,2013-09-10 13:51:00,
2013-09-10 08:56:00,79.4,69.6,29.79,West,280,0.0,2.0,72,0.00,,CLR,0.00,84.00,VWS V14.01,2013-09-10 13:56:00,
2013-09-10 09:01:00,79.6,69.8,29.79,NNE,16,0.0,1.0,72,0.00,,CLR,0.00,84.00,VWS V14.01,2013-09-10 14:01:00,
2013-09-10 09:06:00,79.8,70.0,29.79,NNE,16,0.0,1.0,72,0.00,,CLR,0.00,105.00,VWS V14.01,2013-09-10 14:06:00,
2013-09-10 09:11:00,79.9,70.1,29.79,SE,130,3.0,5.0,72,0.00,,CLR,0.00,93.00,VWS V14.01,2013-09-10 14:11:00,
2013-09-10 09:16:00,80.0,70.2,29.79,NNW,348,0.0,5.0,72,0.00,,CLR,0.00,86.00,VWS V14.01,2013-09-10 14:16:00,
2013-09-10 09:21:00,80.2,70.4,29.79,North,355,0.0,3.0,72,0.00,,CLR,0.00,83.00,VWS V14.01,2013-09-10 14:21:00,
2013-09-10 09:26:00,80.4,70.6,29.79,North,355,0.0,3.0,72,0.00,,CLR,0.00,88.00,VWS V14.01,2013-09-10 14:26:00,
2013-09-10 09:31:00,80.5,70.7,29.79,West,265,0.0,1.0,72,0.00,,CLR,0.00,172.00,VWS V14.01,2013-09-10 14:31:00,
2013-09-10 09:36:00,80.7,70.4,29.79,WSW,257,0.0,1.0,71,0.00,,CLR,0.00,186.00,VWS V14.01,2013-09-10 14:36:00,
2013-09-10 09:41:00,81.0,70.7,29.79,WSW,257,0.0,0.0,71,0.00,,CLR,0.00,468.00,VWS V14.01,2013-09-10 14:41:00,
2013-09-10 09:46:00,81.3,71.0,29.79,NW,319,0.0,3.0,71,0.00,,CLR,0.00,515.00,VWS V14.01,2013-09-10 14:46:00,
2013-09-10 09:51:00,81.8,71.1,29.79,NW,321,0.0,1.0,70,0.00,,CLR,0.00,527.00,VWS V14.01,2013-09-10 14:51:00,
2013-09-10 09:56:00,82.3,70.7,29.79,NW,321,0.0,1.0,68,0.00,,CLR,0.00,510.00,VWS V14.01,2013-09-10 14:56:00,
2013-09-10 10:01:00,82.9,70.8,29.79,NW,321,0.0,0.0,67,0.00,,CLR,0.00,520.00,VWS V14.01,2013-09-10 15:01:00,
2013-09-10 10:06:00,83.4,70.4,29.80,NW,321,0.0,2.0,65,0.00,,CLR,0.00,555.00,VWS V14.01,2013-09-10 15:06:00,
2013-09-10 10:11:00,83.8,70.8,29.80,North,360,0.0,3.0,65,0.00,,CLR,0.00,561.00,VWS V14.01,2013-09-10 15:11:00,
2013-09-10 10:16:00,84.3,71.3,29.80,WSW,242,0.0,4.0,65,0.00,,CLR,0.00,561.00,VWS V14.01,2013-09-10 15:16:00,
2013-09-10 10:21:00,84.7,70.7,29.80,ENE,61,0.0,2.0,63,0.00,,CLR,0.00,573.00,VWS V14.01,2013-09-10 15:21:00,
2013-09-10 10:26:00,85.0,70.5,29.80,SE,134,0.0,2.0,62,0.00,,CLR,0.00,577.00,VWS V14.01,2013-09-10 15:26:00,
2013-09-10 10:31:00,85.2,69.8,29.80,ESE,112,2.0,2.0,60,0.00,,CLR,0.00,605.00,VWS V14.01,2013-09-10 15:31:00,
2013-09-10 10:36:00,85.5,69.6,29.80,ESE,103,0.0,2.0,59,0.00,,CLR,0.00,642.00,VWS V14.01,2013-09-10 15:36:00,
2013-09-10 10:41:00,85.9,69.4,29.79,NW,320,0.0,1.0,58,0.00,,CLR,0.00,659.00,VWS V14.01,2013-09-10 15:41:00,
2013-09-10 10:46:00,86.3,69.8,29.80,NW,320,0.0,1.0,58,0.00,,CLR,0.00,675.00,VWS V14.01,2013-09-10 15:46:00,
2013-09-10 10:51:00,86.8,70.3,29.80,WSW,250,1.0,2.0,58,0.00,,CLR,0.00,694.00,VWS V14.01,2013-09-10 15:51:00,
2013-09-10 10:56:00,87.4,69.8,29.80,NW,321,0.0,3.0,56,0.00,,CLR,0.00,703.00,VWS V14.01,2013-09-10 15:56:00,
2013-09-10 11:01:00,88.2,70.5,29.80,NNE,19,0.0,1.0,56,0.00,,CLR,0.00,710.00,VWS V14.01,2013-09-10 16:01:00,
2013-09-10 11:06:00,88.4,69.7,29.80,NNE,13,0.0,2.0,54,0.00,,CLR,0.00,717.00,VWS V14.01,2013-09-10 16:06:00,
2013-09-10 11:11:00,88.3,69.6,29.80,WSW,258,0.0,3.0,54,0.00,,CLR,0.00,726.00,VWS V14.01,2013-09-10 16:11:00,
2013-09-10 11:16:00,88.8,69.5,29.80,NE,44,0.0,3.0,53,0.00,,CLR,0.00,737.00,VWS V14.01,2013-09-10 16:16:00,
2013-09-10 11:21:00,89.2,69.8,29.80,NW,306,0.0,3.0,53,0.00,,CLR,0.00,744.00,VWS V14.01,2013-09-10 16:21:00,
2013-09-10 11:26:00,89.2,69.8,29.79,WNW,291,0.0,6.0,53,0.00,,CLR,0.00,754.00,VWS V14.01,2013-09-10 16:26:00,
2013-09-10 11:31:00,89.5,70.1,29.80,NNW,346,0.0,4.0,53,0.00,,CLR,0.00,761.00,VWS V14.01,2013-09-10 16:31:00,
2013-09-10 11:36:00,89.3,69.4,29.79,NW,304,9.0,9.0,52,0.00,,CLR,0.00,763.00,VWS V14.01,2013-09-10 16:36:00,
2013-09-10 11:41:00,89.8,69.8,29.79,West,276,0.0,1.0,52,0.00,,CLR,0.00,772.00,VWS V14.01,2013-09-10 16:41:00,
2013-09-10 11:46:00,89.9,69.4,29.79,SSW,213,0.0,4.0,51,0.00,,CLR,0.00,779.00,VWS V14.01,2013-09-10 16:46:00,
2013-09-10 11:51:00,89.9,69.4,29.79,SSW,210,1.0,3.0,51,0.00,,CLR,0.00,784.00,VWS V14.01,2013-09-10 16:51:00,
2013-09-10 11:55:00,89.9,69.4,29.79,NW,304,0.0,3.0,51,0.00,,CLR,0.00,789.00,VWS V14.01,2013-09-10 16:55:00,
2013-09-10 12:00:00,89.8,69.3,29.79,SSE,164,0.0,3.0,51,0.00,,CLR,0.00,795.00,VWS V14.01,2013-09-10 17:00:00,
2013-09-10 12:05:00,89.8,69.3,29.79,NNE,14,7.0,7.0,51,0.00,,CLR,0.00,795.00,VWS V14.01,2013-09-10 17:05:00,
2013-09-10 12:10:00,90.0,68.9,29.78,WNW,286,3.0,3.0,50,0.00,,CLR,0.00,803.00,VWS V14.01,2013-09-10 17:10:00,
2013-09-10 12:15:00,89.8,70.4,29.78,East,101,0.0,11.0,53,0.00,,CLR,0.00,809.00,VWS V14.01,2013-09-10 17:15:00,
2013-09-10 12:20:00,90.0,68.9,29.78,NNE,30,3.0,3.0,50,0.00,,CLR,0.00,809.00,VWS V14.01,2013-09-10 17:20:00,
2013-09-10 12:25:00,90.4,69.2,29.78,WNW,284,1.0,14.0,50,0.00,,CLR,0.00,812.00,VWS V14.01,2013-09-10 17:25:00,
2013-09-10 12:30:00,90.5,68.8,29.78,NW,316,0.0,4.0,49,0.00,,CLR,0.00,814.00,VWS V14.01,2013-09-10 17:30:00,
2013-09-10 12:35:00,90.4,68.7,29.78,East,84,0.0,4.0,49,0.00,,CLR,0.00,812.00,VWS V14.01,2013-09-10 17:35:00,
2013-09-10 12:40:00,90.2,69.1,29.78,East,86,1.0,1.0,50,0.00,,CLR,0.00,810.00,VWS V14.01,2013-09-10 17:40:00,
2013-09-10 12:45:00,90.4,68.7,29.78,NNW,334,0.0,4.0,49,0.00,,CLR,0.00,809.00,VWS V14.01,2013-09-10 17:45:00,
2013-09-10 12:50:00,90.8,69.0,29.78,North,360,7.0,7.0,49,0.00,,CLR,0.00,816.00,VWS V14.01,2013-09-10 17:50:00,
2013-09-10 12:55:00,91.2,68.8,29.78,North,360,0.0,7.0,48,0.00,,CLR,0.00,817.00,VWS V14.01,2013-09-10 17:55:00,
2013-09-10 13:00:00,91.1,69.3,29.78,SSW,192,0.0,5.0,49,0.00,,CLR,0.00,812.00,VWS V14.01,2013-09-10 18:00:00,
2013-09-10 13:05:00,91.7,70.4,29.78,NW,307,2.0,7.0,50,0.00,,CLR,0.00,812.00,VWS V14.01,2013-09-10 18:05:00,
2013-09-10 13:10:00,92.2,69.1,29.78,SSE,157,0.0,1.0,47,0.00,,CLR,0.00,812.00,VWS V14.01,2013-09-10 18:10:00,
2013-09-10 13:15:00,91.6,69.2,29.78,NW,315,0.0,6.0,48,0.00,,CLR,0.00,810.00,VWS V14.01,2013-09-10 18:15:00,
2013-09-10 13:20:00,91.7,69.8,29.78,WNW,282,0.0,3.0,49,0.00,,CLR,0.00,807.00,VWS V14.01,2013-09-10 18:20:00,
2013-09-10 13:25:00,92.1,69.6,29.78,NW,313,0.0,3.0,48,0.00,,CLR,0.00,802.00,VWS V14.01,2013-09-10 18:25:00,
2013-09-10 13:30:00,92.1,69.0,29.78,NNE,25,0.0,4.0,47,0.00,,CLR,0.00,800.00,VWS V14.01,2013-09-10 18:30:00,
2013-09-10 13:35:00,91.9,69.4,29.78,SSW,213,0.0,6.0,48,0.00,,CLR,0.00,793.00,VWS V14.01,2013-09-10 18:35:00,
2013-09-10 13:40:00,92.2,70.9,29.78,NW,313,0.0,2.0,50,0.00,,CLR,0.00,782.00,VWS V14.01,2013-09-10 18:40:00,
2013-09-10 13:45:00,92.4,69.9,29.78,NNW,348,0.0,4.0,48,0.00,,CLR,0.00,784.00,VWS V14.01,2013-09-10 18:45:00,
2013-09-10 13:50:00,92.7,70.8,29.78,NW,323,3.0,3.0,49,0.00,,CLR,0.00,784.00,VWS V14.01,2013-09-10 18:50:00,
2013-09-10 13:55:00,93.3,70.7,29.78,NNW,340,0.0,8.0,48,0.00,,CLR,0.00,770.00,VWS V14.01,2013-09-10 18:55:00,
2013-09-10 14:00:00,93.2,70.6,29.78,WSW,244,3.0,3.0,48,0.00,,CLR,0.00,761.00,VWS V14.01,2013-09-10 19:00:00,
2013-09-10 14:05:00,93.2,71.2,29.77,WNW,302,0.0,5.0,49,0.00,,CLR,0.00,758.00,VWS V14.01,2013-09-10 19:05:00,
2013-09-10 14:10:00,93.8,71.2,29.77,NW,306,0.0,1.0,48,0.00,,CLR,0.00,759.00,VWS V14.01,2013-09-10 19:10:00,
2013-09-10 14:15:00,93.2,71.2,29.77,West,266,2.0,5.0,49,0.00,,CLR,0.00,735.00,VWS V14.01,2013-09-10 19:15:00,
2013-09-10 14:20:00,93.3,71.3,29.77,SSW,207,0.0,7.0,49,0.00,,CLR,0.00,768.00,VWS V14.01,2013-09-10 19:20:00,
2013-09-10 14:25:00,92.7,70.8,29.77,NNW,327,0.0,7.0,49,0.00,,CLR,0.00,237.00,VWS V14.01,2013-09-10 19:25:00,
2013-09-10 14:30:00,92.5,71.2,29.77,WSW,246,1.0,4.0,50,0.00,,CLR,0.00,766.00,VWS V14.01,2013-09-10 19:30:00,
2013-09-10 14:35:00,93.3,71.3,29.77,ESE,112,0.0,4.0,49,0.00,,CLR,0.00,777.00,VWS V14.01,2013-09-10 19:35:00,
2013-09-10 14:40:00,92.7,70.8,29.77,WSW,244,0.0,1.0,49,0.00,,CLR,0.00,206.00,VWS V14.01,2013-09-10 19:40:00,
2013-09-10 14:45:00,91.8,70.5,29.77,NE,43,0.0,2.0,50,0.00,,BKN110,0.00,163.00,VWS V14.01,2013-09-10 19:45:00,
2013-09-10 14:50:00,91.5,70.8,29.77,NW,306,0.0,1.0,51,0.00,,BKN110,0.00,130.00,VWS V14.01,2013-09-10 19:50:00,
2013-09-10 14:55:00,91.5,70.2,29.77,ENE,67,0.0,2.0,50,0.00,,BKN110,0.00,761.00,VWS V14.01,2013-09-10 19:55:00,
2013-09-10 15:00:00,91.5,70.8,29.77,NW,319,1.0,3.0,51,0.00,,BKN120,0.00,712.00,VWS V14.01,2013-09-10 20:00:00,
2013-09-10 15:05:00,92.0,70.7,29.77,West,273,0.0,12.0,50,0.00,,BKN120,0.00,677.00,VWS V14.01,2013-09-10 20:05:00,
2013-09-10 15:10:00,92.4,70.5,29.77,SSE,161,2.0,4.0,49,0.00,,BKN120,0.00,650.00,VWS V14.01,2013-09-10 20:10:00,
2013-09-10 15:15:00,92.5,71.2,29.77,NNE,20,2.0,7.0,50,0.00,,BKN120,0.00,608.00,VWS V14.01,2013-09-10 20:15:00,
2013-09-10 15:20:00,92.0,70.1,29.77,NNE,21,0.0,1.0,49,0.00,,BKN120,0.00,656.00,VWS V14.01,2013-09-10 20:20:00,
2013-09-10 15:25:00,92.3,71.0,29.77,West,281,0.0,3.0,50,0.00,,BKN120,0.00,615.00,VWS V14.01,2013-09-10 20:25:00,
2013-09-10 15:30:00,92.9,70.9,29.77,West,279,0.0,1.0,49,0.00,,BKN110,0.00,548.00,VWS V14.01,2013-09-10 20:30:00,
2013-09-10 15:35:00,92.7,70.2,29.77,NNE,25,0.0,7.0,48,0.00,,BKN110,0.00,647.00,VWS V14.01,2013-09-10 20:35:00,
2013-09-10 15:40:00,92.3,69.8,29.78,North,9,1.0,12.0,48,0.00,,BKN110,0.00,626.00,VWS V14.01,2013-09-10 20:40:00,
2013-09-10 15:45:00,92.0,70.1,29.78,East,80,1.0,12.0,49,0.00,,SCT110,0.00,229.00,VWS V14.01,2013-09-10 20:45:00,
2013-09-10 15:50:00,91.9,70.0,29.78,SSW,193,0.0,2.0,49,0.00,,SCT110,0.00,156.00,VWS V14.01,2013-09-10 20:50:00,
2013-09-10 15:55:00,91.7,69.8,29.78,North,355,4.0,10.0,49,0.00,,SCT110,0.00,151.00,VWS V14.01,2013-09-10 20:55:00,
2013-09-10 16:00:00,91.5,69.7,29.77,WSW,240,0.0,1.0,49,0.00,,BKN080,0.00,116.00,VWS V14.01,2013-09-10 21:00:00,
2013-09-10 16:05:00,91.7,69.2,29.77,NNW,342,1.0,2.0,48,0.00,,BKN080,0.00,207.00,VWS V14.01,2013-09-10 21:05:00,
2013-09-10 16:10:00,91.7,70.4,29.77,SSE,147,1.0,4.0,50,0.00,,BKN080,0.00,79.00,VWS V14.01,2013-09-10 21:10:00,
2013-09-10 16:15:00,91.4,69.0,29.78,SSE,159,1.0,12.0,48,0.00,,BKN080,0.00,181.00,VWS V14.01,2013-09-10 21:15:00,
2013-09-10 16:20:00,91.3,70.1,29.78,NNW,342,0.0,1.0,50,0.00,,BKN080,0.00,95.00,VWS V14.01,2013-09-10 21:20:00,
2013-09-10 16:25:00,91.2,69.4,29.77,NE,37,0.0,7.0,49,0.00,,BKN080,0.00,77.00,VWS V14.01,2013-09-10 21:25:00,
2013-09-10 16:30:00,91.1,69.9,29.77,SE,135,1.0,2.0,50,0.00,,BKN080,0.00,114.00,VWS V14.01,2013-09-10 21:30:00,
2013-09-10 16:35:00,90.9,71.4,29.78,NNW,336,7.0,7.0,53,0.00,,BKN080,0.00,144.00,VWS V14.01,2013-09-10 21:35:00,
2013-09-10 16:40:00,90.2,71.9,29.77,NNW,344,1.0,2.0,55,0.00,,BKN080,0.00,100.00,VWS V14.01,2013-09-10 21:40:00,
2013-09-10 16:45:00,89.4,72.2,29.77,North,349,0.0,6.0,57,0.00,,SCT120,0.00,62.00,VWS V14.01,2013-09-10 21:45:00,
2013-09-10 16:50:00,88.6,71.9,29.78,WNW,300,0.0,1.0,58,0.00,,SCT120,0.00,72.00,VWS V14.01,2013-09-10 21:50:00,
2013-09-10 16:55:00,87.9,71.8,29.79,NW,312,1.0,3.0,59,0.00,,SCT120,0.00,63.00,VWS V14.01,2013-09-10 21:55:00,
2013-09-10 17:00:00,87.4,72.3,29.78,NW,314,0.0,1.0,61,0.00,,BKN100,0.00,86.00,VWS V14.01,2013-09-10 22:00:00,
2013-09-10 17:05:00,86.9,70.9,29.78,West,263,0.0,8.0,59,0.00,,BKN100,0.00,67.00,VWS V14.01,2013-09-10 22:05:00,
2013-09-10 17:10:00,86.5,71.5,29.78,WNW,283,0.0,2.0,61,0.00,,BKN100,0.00,72.00,VWS V14.01,2013-09-10 22:10:00,
2013-09-10 17:15:00,86.1,71.1,29.79,NW,326,1.0,3.0,61,0.00,,BKN100,0.00,67.00,VWS V14.01,2013-09-10 22:15:00,
2013-09-10 17:20:00,85.9,71.4,29.79,NW,317,1.0,1.0,62,0.00,,BKN100,0.00,47.00,VWS V14.01,2013-09-10 22:20:00,
2013-09-10 17:25:00,85.6,71.1,29.79,NNW,339,1.0,4.0,62,0.00,,BKN100,0.00,42.00,VWS V14.01,2013-09-10 22:25:00,
2013-09-10 17:30:00,85.4,70.9,29.79,NNW,337,0.0,0.0,62,0.00,,BKN110,0.00,51.00,VWS V14.01,2013-09-10 22:30:00,
2013-09-10 17:35:00,85.2,70.7,29.79,NNW,336,1.0,3.0,62,0.00,,BKN110,0.00,53.00,VWS V14.01,2013-09-10 22:35:00,
2013-09-10 17:40:00,85.0,71.0,29.79,NNW,333,0.0,1.0,63,0.00,,BKN110,0.00,40.00,VWS V14.01,2013-09-10 22:40:00,
2013-09-10 17:45:00,84.9,70.9,29.79,NNW,333,0.0,2.0,63,0.00,,SCT110,0.00,44.00,VWS V14.01,2013-09-10 22:45:00,
2013-09-10 17:50:00,84.7,71.2,29.79,NNW,333,0.0,1.0,64,0.00,,SCT110,0.00,30.00,VWS V14.01,2013-09-10 22:50:00,
2013-09-10 17:55:00,84.5,71.0,29.80,NNW,333,0.0,1.0,64,0.00,,SCT110,0.00,37.00,VWS V14.01,2013-09-10 22:55:00,
2013-09-10 18:00:00,84.3,71.3,29.79,NNW,333,0.0,0.0,65,0.00,,SCT110,0.00,39.00,VWS V14.01,2013-09-10 23:00:00,
2013-09-10 18:05:00,84.0,71.0,29.80,NNW,333,0.0,1.0,65,0.00,,SCT110,0.00,26.00,VWS V14.01,2013-09-10 23:05:00,
2013-09-10 18:10:00,83.8,71.2,29.79,NNW,333,0.0,0.0,66,0.00,,SCT110,0.00,23.00,VWS V14.01,2013-09-10 23:10:00,
2013-09-10 18:15:00,83.7,71.1,29.80,NNW,333,0.0,2.0,66,0.00,,SCT110,0.00,28.00,VWS V14.01,2013-09-10 23:15:00,
2013-09-10 18:20:00,83.4,70.4,29.80,North,355,1.0,4.0,65,0.00,,SCT110,0.00,21.00,VWS V14.01,2013-09-10 23:20:00,
2013-09-10 18:25:00,83.2,69.8,29.80,NNW,341,3.0,7.0,64,0.00,,SCT110,0.00,18.00,VWS V14.01,2013-09-10 23:25:00,
2013-09-10 18:30:00,83.0,69.1,29.80,NNW,342,3.0,3.0,63,0.00,,SCT070,0.00,12.00,VWS V14.01,2013-09-10 23:30:00,
2013-09-10 18:35:00,82.8,68.5,29.80,NNW,341,0.0,4.0,62,0.00,,SCT070,0.00,9.00,VWS V14.01,2013-09-10 23:35:00,
2013-09-10 18:40:00,82.6,67.3,29.80,WNW,291,0.0,1.0,60,0.00,,SCT070,0.00,9.00,VWS V14.01,2013-09-10 23:40:00,
2013-09-10 18:45:00,82.4,67.6,29.80,WNW,294,0.0,2.0,61,0.00,,SCT070,0.00,9.00,VWS V14.01,2013-09-10 23:45:00,
2013-09-10 18:50:00,82.2,67.4,29.80,WNW,294,0.0,1.0,61,0.00,,SCT070,0.00,5.00,VWS V14.01,2013-09-10 23:50:00,
2013-09-10 18:55:00,82.0,67.7,29.81,NNW,336,0.0,4.0,62,0.00,,SCT070,0.00,5.00,VWS V14.01,2013-09-10 23:55:00,
2013-09-10 19:00:00,81.8,68.0,29.81,NNW,332,1.0,1.0,63,0.00,,SCT120,0.00,0.00,VWS V14.01,2013-09-11 00:00:00,
2013-09-10 19:05:00,81.5,67.2,29.81,NE,36,0.0,10.0,62,0.00,,SCT120,0.00,0.00,VWS V14.01,2013-09-11 00:05:00,
2013-09-10 19:10:00,81.1,66.9,29.82,WNW,294,2.0,4.0,62,0.00,,SCT120,0.00,0.00,VWS V14.01,2013-09-11 00:10:00,
2013-09-10 19:15:00,80.8,66.6,29.82,NNW,329,1.0,6.0,62,0.00,,SCT120,0.00,0.00,VWS V14.01,2013-09-11 00:15:00,
2013-09-10 19:20:00,80.5,66.3,29.82,NW,307,3.0,3.0,62,0.00,,SCT120,0.00,0.00,VWS V14.01,2013-09-11 00:20:00,
2013-09-10 19:25:00,80.2,66.5,29.82,NNW,335,0.0,4.0,63,0.00,,SCT120,0.00,0.00,VWS V14.01,2013-09-11 00:25:00,
2013-09-10 19:30:00,80.0,66.3,29.82,NW,308,0.0,2.0,63,0.00,,SCT110,0.00,0.00,VWS V14.01,2013-09-11 00:30:00,
2013-09-10 19:35:00,79.7,66.5,29.82,NW,308,0.0,2.0,64,0.00,,SCT110,0.00,0.00,VWS V14.01,2013-09-11 00:35:00,
2013-09-10 19:40:00,79.5,66.7,29.82,NNW,348,4.0,5.0,65,0.00,,SCT110,0.00,0.00,VWS V14.01,2013-09-11 00:40:00,
2013-09-10 19:45:00,79.3,66.5,29.82,NNW,342,0.0,7.0,65,0.00,,SCT120,0.00,0.00,VWS V14.01,2013-09-11 00:45:00,
2013-09-10 19:50:00,79.1,66.8,29.83,North,360,0.0,2.0,66,0.00,,SCT120,0.00,0.00,VWS V14.01,2013-09-11 00:50:00,
2013-09-10 19:55:00,78.9,66.6,29.83,North,360,0.0,2.0,66,0.00,,SCT120,0.00,0.00,VWS V14.01,2013-09-11 00:55:00,
2013-09-10 20:00:00,78.7,66.8,29.84,North,9,0.0,0.0,67,0.00,,BKN110,0.00,0.00,VWS V14.01,2013-09-11 01:00:00,
2013-09-10 20:05:00,78.5,66.6,29.85,North,355,0.0,4.0,67,0.00,,BKN110,0.00,0.00,VWS V14.01,2013-09-11 01:05:00,
2013-09-10 20:10:00,78.3,66.9,29.84,North,351,1.0,1.0,68,0.00,,BKN110,0.00,0.00,VWS V14.01,2013-09-11 01:10:00,
2013-09-10 20:15:00,78.0,66.6,29.85,North,351,3.0,4.0,68,0.00,,BKN110,0.00,0.00,VWS V14.01,2013-09-11 01:15:00,
2013-09-10 20:20:00,77.8,66.8,29.85,NNW,345,0.0,1.0,69,0.00,,BKN110,0.00,0.00,VWS V14.01,2013-09-11 01:20:00,
2013-09-10 20:25:00,77.6,67.1,29.85,NNE,18,1.0,3.0,70,0.00,,BKN110,0.00,0.00,VWS V14.01,2013-09-11 01:25:00,
2013-09-10 20:30:00,77.4,67.3,29.85,North,355,0.0,2.0,71,0.00,,BKN100,0.00,0.00,VWS V14.01,2013-09-11 01:30:00,
2013-09-10 20:35:00,77.2,67.1,29.86,NNW,346,0.0,3.0,71,0.00,,BKN100,0.00,0.00,VWS V14.01,2013-09-11 01:35:00,
2013-09-10 20:40:00,77.0,67.3,29.85,North,11,2.0,2.0,72,0.00,,BKN100,0.00,0.00,VWS V14.01,2013-09-11 01:40:00,
2013-09-10 20:45:00,76.7,67.8,29.86,North,360,4.0,9.0,74,0.00,,BKN095,0.00,0.00,VWS V14.01,2013-09-11 01:45:00,
2013-09-10 20:50:00,76.3,67.8,29.86,NNW,338,2.0,4.0,75,0.00,,BKN095,0.00,0.00,VWS V14.01,2013-09-11 01:50:00,
2013-09-10 20:55:00,75.8,67.7,29.86,NNW,340,0.0,4.0,76,0.00,,BKN095,0.00,0.00,VWS V14.01,2013-09-11 01:55:00,
2013-09-10 21:00:00,75.5,67.8,29.86,North,355,0.0,3.0,77,0.00,,BKN120,0.00,0.00,VWS V14.01,2013-09-11 02:00:00,
2013-09-10 21:05:00,75.1,67.8,29.85,North,355,0.0,3.0,78,0.00,,BKN120,0.00,0.00,VWS V14.01,2013-09-11 02:05:00,
2013-09-10 21:10:00,74.8,67.9,29.86,North,355,0.0,1.0,79,0.00,,BKN120,0.00,0.00,VWS V14.01,2013-09-11 02:10:00,
2013-09-10 21:15:00,74.6,68.0,29.86,North,355,0.0,2.0,80,0.00,,BKN120,0.00,0.00,VWS V14.01,2013-09-11 02:15:00,
2013-09-10 21:20:00,74.4,67.8,29.86,North,355,1.0,1.0,80,0.00,,BKN120,0.00,0.00,VWS V14.01,2013-09-11 02:20:00,
2013-09-10 21:25:00,74.2,68.4,29.83,NNE,19,0.0,2.0,82,0.00,,BKN120,0.00,0.00,VWS V14.01,2013-09-11 02:25:00,
2013-09-10 21:30:00,74.1,68.6,29.85,NNE,22,0.0,1.0,83,0.00,,BKN095,0.00,0.00,VWS V14.01,2013-09-11 02:30:00,
2013-09-10 21:35:00,73.9,68.8,29.85,NNE,22,0.0,1.0,84,0.00,,BKN095,0.00,0.00,VWS V14.01,2013-09-11 02:35:00,
2013-09-10 21:40:00,73.7,68.9,29.85,NNE,22,0.0,0.0,85,0.00,,BKN095,0.00,0.00,VWS V14.01,2013-09-11 02:40:00,
2013-09-10 21:45:00,73.5,68.7,29.85,NNE,22,0.0,0.0,85,0.00,,RA,0.00,0.00,VWS V14.01,2013-09-11 02:45:00,
2013-09-10 21:50:00,73.2,68.8,29.85,NNE,22,0.0,0.0,86,0.00,,RA,0.00,0.00,VWS V14.01,2013-09-11 02:50:00,
2013-09-10 21:55:00,73.0,68.9,29.86,NNE,22,0.0,1.0,87,0.00,,RA,0.00,0.00,VWS V14.01,2013-09-11 02:55:00,
2013-09-10 22:00:00,72.7,68.9,29.85,NNE,22,0.0,0.0,88,0.00,,BKN110,0.00,0.00,VWS V14.01,2013-09-11 03:00:00,
2013-09-10 22:05:00,72.5,69.1,29.85,NNE,22,0.0,0.0,89,0.00,,BKN110,0.00,0.00,VWS V14.01,2013-09-11 03:05:00,
2013-09-10 22:10:00,72.3,68.9,29.85,NNE,22,0.0,0.0,89,0.00,,BKN110,0.00,0.00,VWS V14.01,2013-09-11 03:10:00,
2013-09-10 22:15:00,72.1,69.0,29.86,NNE,22,0.0,0.0,90,0.00,,-RA,0.00,0.00,VWS V14.01,2013-09-11 03:15:00,
2013-09-10 22:20:00,72.0,68.9,29.86,NNE,22,0.0,0.0,90,0.00,,-RA,0.00,0.00,VWS V14.01,2013-09-11 03:20:00,
2013-09-10 22:25:00,71.8,68.7,29.87,NNE,22,0.0,0.0,90,0.00,,-RA,0.00,0.00,VWS V14.01,2013-09-11 03:25:00,
2013-09-10 22:30:00,71.7,68.9,29.87,NNE,22,0.0,1.0,91,0.04,,-RA,0.04,0.00,VWS V14.01,2013-09-11 03:30:00,
2013-09-10 22:35:00,71.5,69.1,29.86,NNE,23,0.0,1.0,92,0.06,,-RA,0.06,0.00,VWS V14.01,2013-09-11 03:35:00,
2013-09-10 22:40:00,71.4,69.0,29.86,NNE,23,0.0,0.0,92,0.07,,-RA,0.07,0.00,VWS V14.01,2013-09-11 03:40:00,
2013-09-10 22:45:00,71.3,68.9,29.85,NNE,23,0.0,0.0,92,0.07,,-RA,0.07,0.00,VWS V14.01,2013-09-11 03:45:00,
2013-09-10 22:50:00,71.1,68.7,29.86,NNE,23,0.0,0.0,92,0.07,,-RA,0.07,0.00,VWS V14.01,2013-09-11 03:50:00,
2013-09-10 22:55:00,71.1,69.0,29.86,NNE,23,0.0,0.0,93,0.07,,-RA,0.07,0.00,VWS V14.01,2013-09-11 03:55:00,
2013-09-10 23:00:00,71.0,68.9,29.86,NNE,23,0.0,0.0,93,0.07,,-RA,0.07,0.00,VWS V14.01,2013-09-11 04:00:00,
2013-09-10 23:01:00,70.9,68.8,29.86,NNE,23,0.0,0.0,93,0.07,, +RA,0.07,0.00,VWS V14.01,2013-09-11 04:01:00,
2013-09-10 23:06:00,70.8,68.7,29.86,NNE,23,0.0,0.0,93,0.07,, +RA,0.07,0.00,VWS V14.01,2013-09-11 04:06:00,
2013-09-10 23:11:00,70.7,68.6,29.86,NNE,23,0.0,0.0,93,0.07,, +RA,0.07,0.00,VWS V14.01,2013-09-11 04:11:00,
2013-09-10 23:16:00,70.6,68.5,29.86,NNE,23,0.0,0.0,93,0.07,, +RA,0.07,0.00,VWS V14.01,2013-09-11 04:16:00,
2013-09-10 23:21:00,70.5,68.7,29.86,NNE,23,0.0,0.0,94,0.07,, +RA,0.07,0.00,VWS V14.01,2013-09-11 04:21:00,
2013-09-10 23:26:00,70.4,68.6,29.86,NNE,23,0.0,0.0,94,0.07,, +RA,0.07,0.00,VWS V14.01,2013-09-11 04:26:00,
2013-09-10 23:31:00,70.4,68.6,29.86,NNE,23,0.0,0.0,94,0.03,,OVC060,0.07,0.00,VWS V14.01,2013-09-11 04:31:00,
2013-09-10 23:36:00,70.3,68.5,29.87,NNE,23,0.0,0.0,94,0.03,,OVC060,0.07,0.00,VWS V14.01,2013-09-11 04:36:00,
2013-09-10 23:41:00,70.3,68.5,29.87,NNE,23,0.0,0.0,94,0.00,,OVC060,0.07,0.00,VWS V14.01,2013-09-11 04:41:00,
2013-09-10 23:46:00,70.3,68.5,29.87,NNE,23,0.0,0.0,94,0.00,,OVC060,0.07,0.00,VWS V14.01,2013-09-11 04:46:00,
2013-09-10 23:51:00,70.3,68.8,29.87,NNE,23,0.0,0.0,95,0.00,,OVC060,0.07,0.00,VWS V14.01,2013-09-11 04:51:00,
2013-09-10 23:56:00,70.3,68.8,29.87,NNE,23,0.0,0.0,95,0.00,,OVC060,0.07,0.00,VWS V14.01,2013-09-11 04:56:00,